This demonstration page uses our WeatherBlox Daily Observations layout. Learn more.

Left ArrowRight Arrow

34.16533, -84.80231

Hourly Observations for June 17, 2022

Temp ( °F °C ) Dew Point ( °F °C ) Humidity (%) Winds ( mph kmh ) Pressure ( in mb ) Visibility ( mi km ) Precip ( " mm )
12:15 am 00:15 Cloudy 82 28 64 18 55 55 S 12 19 30.12 1020 10 16 0.00 0.00
12:35 am 00:35 Partly Cloudy 79 26 66 19 65 65 VRB 3 6 30.13 1020 10 16 0.00 0.00
12:55 am 00:55 Clear with Nearby Thunderstorms 79 26 64 18 61 61 SSW 3 6 30.13 1020 10 16 0.00 0.00
1:15 am 01:15 Clear 79 26 66 19 65 65 ESE 5 7 30.12 1020 10 16 0.00 0.00
1:35 am 01:35 Mostly Clear 77 25 64 18 65 65 Calm 30.11 1020 10 16 0.00 0.00
1:55 am 01:55 Partly Cloudy 77 25 64 18 65 65 Calm 30.11 1020 10 16 0.00 0.00
2:15 am 02:15 Mostly Cloudy 75 24 64 18 69 69 Calm 30.10 1019 10 16 0.00 0.00
2:35 am 02:35 Mostly Cloudy 75 24 66 19 74 74 E 3 6 30.10 1019 10 16 0.00 0.00
2:55 am 02:55 Mostly Cloudy 75 24 64 18 69 69 Calm 30.11 1020 10 16 0.00 0.00
3:15 am 03:15 Mostly Cloudy 75 24 64 18 69 69 Calm 30.11 1020 10 16 0.00 0.00
3:35 am 03:35 Mostly Cloudy 75 24 64 18 69 69 Calm 30.10 1019 10 16 0.00 0.00
3:55 am 03:55 Mostly Cloudy 75 24 64 18 69 69 Calm 30.11 1020 10 16 0.00 0.00
4:15 am 04:15 Cloudy 73 23 66 19 78 78 Calm 30.10 1019 10 16 0.00 0.00
4:35 am 04:35 Cloudy 73 23 66 19 78 78 E 3 6 30.10 1019 10 16 0.00 0.00
4:55 am 04:55 Cloudy 73 23 66 19 78 78 Calm 30.09 1019 10 16 0.00 0.00
5:15 am 05:15 Cloudy 73 23 66 19 78 78 Calm 30.09 1019 10 16 0.00 0.00
5:35 am 05:35 Cloudy 73 23 66 19 78 78 Calm 30.09 1019 10 16 0.00 0.00
5:55 am 05:55 Partly Cloudy 72 22 66 19 83 83 Calm 30.09 1019 10 16 0.00 0.00
6:15 am 06:15 Mostly Clear 72 22 66 19 83 83 Calm 30.09 1019 10 16 0.00 0.00
6:35 am 06:35 Sunny 72 22 66 19 83 83 Calm 30.10 1019 10 16 0.00 0.00
6:55 am 06:55 Sunny 72 22 66 19 83 83 WNW 5 7 30.10 1019 10 16 0.00 0.00
7:15 am 07:15 Sunny 72 22 68 20 88 88 Calm 30.10 1019 9 14 0.00 0.00
7:35 am 07:35 Sunny 75 24 68 20 78 78 Calm 30.09 1019 10 16 0.00 0.00
7:55 am 07:55 Sunny 75 24 68 20 78 78 Calm 30.09 1019 10 16 0.00 0.00
8:15 am 08:15 Sunny 77 25 68 20 74 74 Calm 30.09 1019 10 16 0.00 0.00
8:35 am 08:35 Sunny 77 25 70 21 79 79 VRB 5 7 30.08 1019 10 16 0.00 0.00
8:55 am 08:55 Sunny 79 26 70 21 74 74 Calm 30.09 1019 10 16 0.00 0.00
9:15 am 09:15 Sunny 81 27 72 22 74 74 VRB 3 6 30.08 1019 10 16 0.00 0.00
9:35 am 09:35 Sunny 81 27 72 22 74 74 Calm 30.08 1019 10 16 0.00 0.00
9:55 am 09:55 Sunny 82 28 72 22 70 70 Calm 30.07 1018 10 16 0.00 0.00
10:15 am 10:15 Sunny 84 29 70 21 62 62 WNW 6 9 30.08 1019 10 16 0.00 0.00
10:35 am 10:35 Sunny 86 30 70 21 59 59 W 7 11 30.08 1019 10 16 0.00 0.00
10:55 am 10:55 Sunny 88 31 70 21 55 55 VRB 5 7 30.05 1018 10 16 0.00 0.00
11:15 am 11:15 Sunny 88 31 70 21 55 55 NW 6 9 30.05 1018 9 14 0.00 0.00
11:35 am 11:35 Sunny 90 32 68 20 49 49 VRB 7 11 30.05 1018 10 16 0.00 0.00
11:55 am 11:55 Sunny 91 33 70 21 49 49 W 7 11 30.06 1018 9 14 0.00 0.00
12:15 pm 12:15 Sunny 91 33 68 20 46 46 W 12 19 30.06 1018 10 16 0.00 0.00
12:35 pm 12:35 Sunny 91 33 70 21 49 49 W 12 19 30.05 1018 10 16 0.00 0.00
12:55 pm 12:55 Sunny 91 33 70 21 49 49 W 10 17 30.04 1017 10 16 0.00 0.00
1:15 pm 13:15 Sunny 93 34 70 21 47 47 VRB 7 11 30.04 1017 10 16 0.00 0.00
1:35 pm 13:35 Sunny 93 34 72 22 49 49 W 10 17 30.03 1017 10 16 0.00 0.00
1:55 pm 13:55 Sunny 93 34 72 22 49 49 W 9 15 30.02 1016 10 16 0.00 0.00
2:15 pm 14:15 Partly Cloudy 93 34 72 22 49 49 W 8 13 30.00 1016 10 16 0.00 0.00
2:35 pm 14:35 Partly Cloudy 93 34 73 23 53 53 W 13 20 29.98 1015 10 16 0.00 0.00
2:55 pm 14:55 Mostly Sunny 93 34 73 23 53 53 WSW 9 15 29.97 1015 10 16 0.00 0.00
3:15 pm 15:15 Mostly Sunny 95 35 72 22 47 47 W 14 22 29.96 1015 10 16 0.00 0.00
3:35 pm 15:35 Sunny 93 34 72 22 49 49 W 12 19 29.96 1014 10 16 0.00 0.00
3:55 pm 15:55 Sunny 95 35 70 21 44 44 WNW 8 13 29.95 1014 10 16 0.00 0.00
4:15 pm 16:15 Sunny 95 35 72 22 47 47 W 9 15 29.94 1014 10 16 0.00 0.00
4:35 pm 16:35 Partly Cloudy 93 34 70 21 47 47 WNW 16 26 29.96 1014 9 14 0.00 0.00
4:55 pm 16:55 Cloudy with Thunderstorms 79 26 66 19 65 65 VRB 7 11 30.01 1016 9 14 0.00 0.00
5:15 pm 17:15 Partly Cloudy with Nearby Thunderstorms 77 25 64 18 65 65 SE 6 9 30.01 1016 10 16 0.00 0.00
5:35 pm 17:35 Sunny with Nearby Thunderstorms 77 25 64 18 65 65 ENE 5 7 29.97 1015 10 16 0.00 0.00
5:55 pm 17:55 Sunny 75 24 66 19 74 74 Calm 29.98 1015 10 16 0.00 0.00
6:15 pm 18:15 Sunny 75 24 68 20 78 78 Calm 29.98 1015 10 16 0.00 0.00
6:35 pm 18:35 Sunny 77 25 68 20 74 74 VRB 3 6 29.96 1015 10 16 0.00 0.00
6:55 pm 18:55 Sunny 79 26 68 20 70 70 Calm 29.95 1014 10 16 0.00 0.00
7:15 pm 19:15 Sunny 79 26 68 20 70 70 W 5 7 29.95 1014 10 16 0.00 0.00
7:35 pm 19:35 Sunny 81 27 68 20 66 66 W 3 6 29.95 1014 10 16 0.00 0.00
7:55 pm 19:55 Sunny 81 27 68 20 66 66 W 7 11 29.94 1014 10 16 0.00 0.00
8:15 pm 20:15 Sunny 79 26 68 20 70 70 W 3 6 29.95 1014 10 16 0.00 0.00
8:35 pm 20:35 Sunny 79 26 70 21 74 74 Calm 29.95 1014 7 11 0.00 0.00
8:55 pm 20:55 Clear 77 25 70 21 79 79 WSW 3 6 29.95 1014 10 16 0.00 0.00
9:15 pm 21:15 Clear 77 25 70 21 79 79 Calm 29.94 1014 10 16 0.00 0.00
9:35 pm 21:35 Clear 77 25 72 22 83 83 VRB 3 6 29.96 1015 10 16 0.00 0.00
9:55 pm 21:55 Clear 75 24 72 22 89 89 Calm 29.97 1015 9 14 0.00 0.00
10:15 pm 22:15 Clear 75 24 70 21 83 83 NNE 6 9 29.97 1015 10 16 0.00 0.00
10:35 pm 22:35 Hazy 75 24 70 21 83 83 Calm 29.97 1015 4 6 0.00 0.00
10:55 pm 22:55 Clear 75 24 70 21 83 83 Calm 29.98 1015 9 14 0.00 0.00
11:15 pm 23:15 Clear 75 24 70 21 83 83 Calm 29.97 1015 9 14 0.00 0.00
11:35 pm 23:35 Clear with Mist and Fog 75 24 70 21 83 83 Calm 29.97 1015 4 6 0.00 0.00
11:55 pm 23:55 Mostly Cloudy with Fog 73 23 70 21 89 89 Calm 29.97 1015 0 0 0.00 0.00

Powered by AerisWeather